Probability
0 0 0 0 0 0 0 0 0 0 0 0 0 0 0 0 0 0 0 0 0 0 0 0 0 0 0 0 0 0 0 0 0 0 0 0 0 0 0 0 0 0 0 0
0 0 0 0 0 0 0 0 0 0 0 0 0 0 0 0 0 0 0 0 0 0 0 0 0 0 0 0 0 0 0 0 0 0 0 0 0 0 0 0 0 0 0 0
0 0 0 0 0 0 0 0 0 0 0 0 0 0 0 0 0 0 0 0 0 0 0 0 0 0 0 0 0 0 0 0 0 0 0 0 0 0 0 0 0 0 0 0
0 0 0 0 0 0 0 0 0 0 0 0 0 0 0 0 0 0 0 0 0 0 0 0 0 0 0 0 0 0 0 0 0 0 0 0 0 0 0 0 0 0 0 0
0 0 0 0 0 0 0 0 0 0 0 0 0 0 0 0 0 0 0 0 0 0 0 0 0 0 0 0 0 0 0 0 0 0 0 0 0 0 0 0 0 0 0 0
0 0 0 0 0 0 0 0 0 0 0 0 0 0 0 0 0 0 0 0 0 0 0 0 0 0 0 0 0 0 0 0 0 0 0 0 0 0 0 0 0 0 0 0
0 0 0 0 0 0 0 0 0 0 0 0 0 0 0 0 0 0 0 0 0 0 0 0 0 0 0 0 0 0 0 0 0 0 0 0 0 0 0 0 0 0 0 0
0 0 0 0 0 0 0 0 0 0 0 0 0 0 0 0 0 0 0 0 0 0 0 0 0 0 0 0 0 0 0 0 0 0 0 0 0 0 0 0 0 0 0 0
0 0 0 0 0 0 0 0 0 0 0 0 0 0 0 0 0 0 0 0 0 0 0 0 0 0 0 0 0 0 0 0 0 0 0 0 0 0 0 0 0 0 0 0
0 0 0 0 0 0 0 0 0 0 0 0 0 0 0 0 0 0 0 0 0 0 0 0 0 0 0 0 0 0 0 0 0 0 0 0 0 0 0 0 0 0 0 0
0 0 0 0 0 0 0 0 0 0 0 0 0 0 0 0 0 0 0 0 0 0 0 0 0 0 0 0 0 0 0 0 0 0 0 0 0 0 0 0 0 0 0 0
0 0 0 0 0 0 0 0 0 0 0 0 0 0 0 0 0 0 0 0 0 0 0 0 0 0 0 0 0 0 0 0 0 0 0 0 0 0 0 0 0 0 0 0
0 0 0 0 0 0 0 0 0 0 0 0 0 0 0 0 0 0 0 0 0 0 0 0 0 0 0 0 0 0 0 0 0 0 0 0 0 0 0 0 0 0 0 0
0 0 0 0 0 0 0 0 0 0 0 0 0 0 0 0 0 0 0 0 0 0 0 0 0 0 0 0 0 0 0 0 0 0 0 0 0 0 0 0 0 0 0 0
0 0 0 0 0 0 0 0 0 0 0 0 0 0 0 0 0 0 0 0 0 0 0 0 0 0 0 0 0 0 0 0 0 0 0 0 0 0 0 0 0 0 0 0
0 0 0 0 0 0 0 0 0 0 0 0 0 0 0 0 0 0 0 0 0 0 0 0 0 0 0 0 0 0 0 0 0 0 0 0 0 0 0 0 0 0 0 0
0 0 0 0 0 0 0 0 0 0 0 0 0 0 0 0 0 0 0 0 0 0 0 0 0 0 0 0 0 0 0 0 0 0 0 0 0 0 0 0 0 0 0 0
0 0 0 0 0 0 0 0 0 0 0 0 0 0 0 0 0 0 0 0 0 0 0 0 0 0 0 0 0 0 0 0 0 0 0 0 0 0 0 0 0 0 0 0
0 0 0 0 0 0 0 0 0 0 0 0 0 0 0 0 0 0 0 0 0 0 0 0 0 0 0 0 0 0 0 0 0 0 0 0 0 0 0 0 0 0 0 0
0 0 0 0 0 0 0 0 0 0 0 0 0 0 0 0 0 0 0 0 0 0 0 0 0 0 0 0 0 0 0 0 0 0 0 0 0 0 0 0 0 0 0 0
0 0 0 0 0 0 0 0 0 0 0 0 0 0 0 0 0 0 0 0 0 0 0 0 0 0 0 0 0 0 0 0 0 0 0 0 0 0 0 0 0 0 0 0
0 0 0 0 0 0 0 0 0 0 0 0 0 0 0 0 0 0 0 0 0 0 0 0 0 0 0 0 0 0 0 0 0 0 0 0 0 0 0 0 0 0 0 0
0 0 0 0 0 0 0 0 0 0 0 0 0 0 0 0 0 0 0 0 0 0 0 0 0 0 0 0 0 0 0 0 0 0 0 0 0 0 0 0 0 0 0 0
0 0 0 0 0 0 0 0 0 0 0 0 0 0 0 0 0 0 0 0 0 0 0 0 0 0 0 0 0 0 0 0 0 0 0 0 0 0 0 0 0 0 0 0
0 0 0 0 0 0 0 0 0 0 0 0 0 0 0 0 0 0 0 0 0 0 0 0 0 0 0 0 0 0 0 0 0 0 0 0 0 0 0 0 0 0 0 0
0 0 0 0 0 0 0 0 0 0 0 0 0 0 0 0 0 0 0 0 0 0 0 0 0 0 0 0 0 0 0 0 0 0 0 0 0 0 0 0 0 0 0 0
Wind_Speed
4 7 12 16 17 6 4 6 8 4 0 4 9 9 9 7 7 7 7 6 5 4 4 5 6 6 6 8 8 8 8 7 6 5 6 8 9 9 10 11 13 14 13 13
6 14 14 5 8 6 6 8 10 5 1 4 7 12 7 8 7 8 8 8 7 6 5 5 6 7 8 8 8 8 9 9 8 7 7 7 9 9 10 10 13 14 14 14
16 4 7 10 8 11 12 14 14 8 2 3 5 12 12 8 5 6 7 8 8 8 8 6 6 6 7 8 8 7 9 10 11 11 10 9 9 8 9 10 10 13 14 14
15 5 7 9 12 14 13 11 11 9 7 7 6 10 8 8 9 10 11 11 11 9 8 7 6 6 6 7 7 8 9 10 10 9 9 11 10 10 8 8 9 11 12 13
11 9 10 12 11 14 5 4 6 6 9 9 7 10 7 5 10 14 15 14 13 11 9 8 6 6 6 6 7 8 10 10 10 10 12 13 12 11 8 9 10 10 10 11
4 4 7 7 2 7 10 8 5 2 4 11 13 14 10 9 10 9 17 17 16 13 11 9 7 6 6 6 7 8 10 10 10 10 11 13 14 12 12 10 9 8 7 7
9 7 5 5 8 7 10 9 6 6 8 11 7 11 12 6 4 7 17 20 18 15 13 12 11 10 9 9 8 8 10 11 10 11 11 12 12 12 11 9 8 7 6 5
12 11 15 12 13 14 17 16 11 10 9 6 6 12 7 2 4 3 10 17 18 16 14 14 13 11 10 10 10 10 11 11 10 10 11 10 10 8 7 8 7 6 5 5
14 10 4 8 4 13 13 12 6 3 2 4 9 7 7 4 5 6 11 18 20 19 17 15 14 13 12 12 11 11 12 11 11 10 10 9 9 8 8 8 7 5 5 4
11 8 5 5 4 2 5 9 7 8 8 10 9 9 8 12 14 12 15 20 21 20 18 16 15 14 13 12 11 11 11 12 11 10 9 7 8 8 7 6 6 6 5 4
11 10 6 6 15 17 11 10 10 9 7 8 8 8 6 10 13 17 18 19 21 22 21 18 16 15 14 13 12 12 12 12 11 10 9 9 8 7 7 6 6 5 4 3
11 7 7 9 3 5 13 14 15 11 9 7 7 6 3 4 7 12 15 16 19 21 20 18 17 16 15 15 14 14 13 13 12 11 10 9 8 8 7 6 6 5 4 3
14 9 5 4 6 7 11 12 13 6 6 9 10 6 4 3 5 8 11 15 16 18 19 18 17 17 17 17 16 15 15 14 12 11 11 10 9 9 8 7 6 5 4 3
12 11 15 18 10 15 14 16 18 15 12 13 15 10 7 9 9 10 12 14 16 18 19 19 18 18 17 17 17 16 16 15 13 12 12 12 11 10 9 8 7 6 5 4
11 13 15 12 5 10 16 22 25 27 25 18 16 18 15 16 16 14 13 13 15 17 19 20 19 17 17 17 17 17 16 15 14 14 13 13 11 9 8 8 7 6 5 4
12 10 10 10 10 9 10 19 26 26 24 23 18 17 8 14 11 11 12 15 17 18 19 19 18 17 17 18 17 17 17 16 15 15 14 12 10 9 9 8 7 7 6 5
13 11 12 11 7 4 19 22 20 18 17 18 24 17 8 10 14 16 16 16 17 17 16 16 16 16 16 17 17 18 17 14 12 12 10 9 10 10 10 9 8 8 7 6
17 13 8 6 10 20 13 7 19 21 19 17 9 5 11 13 9 8 10 13 13 11 11 12 12 12 12 12 13 13 11 11 12 12 11 10 11 11 10 9 9 8 6 6
10 14 9 8 11 12 4 6 12 16 16 16 14 7 6 7 5 4 7 8 8 9 8 8 9 9 9 10 11 10 9 10 11 12 12 12 12 11 11 11 10 8 6 6
3 7 8 8 10 14 6 7 5 7 9 8 14 12 11 11 7 7 8 8 7 6 6 6 6 7 8 8 9 10 10 10 12 13 12 10 11 11 12 11 9 7 6 6
9 9 12 11 11 9 3 6 10 12 9 6 10 11 14 13 6 5 9 8 7 6 6 6 6 7 7 7 9 9 9 12 11 8 7 8 9 10 10 8 7 6 6 5
15 12 11 9 11 11 10 12 12 4 4 6 9 10 12 9 7 8 8 8 7 6 6 6 7 7 6 7 9 9 11 10 7 7 8 8 8 8 7 8 7 6 6 6
9 8 7 8 6 3 11 7 3 4 6 7 8 9 11 11 10 9 8 8 7 7 7 6 7 6 5 7 9 10 9 6 7 7 8 8 8 7 7 8 7 6 6 6
4 1 3 3 3 3 6 3 3 4 5 6 7 9 12 11 11 10 8 7 7 6 6 5 6 7 7 7 8 9 4 6 8 8 8 7 8 8 7 6 6 6 6 6
7 9 6 4 2 4 5 8 8 6 4 5 6 7 11 11 10 9 7 7 7 6 5 6 7 9 9 6 7 6 6 8 8 8 7 7 7 7 7 7 6 7 7 7
7 10 10 7 10 9 10 13 12 11 10 9 8 6 5 7 8 8 7 7 7 7 6 6 7 8 7 5 5 5 6 8 8 7 7 6 6 5 5 5 6 11 12 13
Wind_Direction
160 194 213 210 211 231 205 212 231 230 151 232 238 238 198 183 201 199 190 180 162 128 83 60 53 53 62 64 69 75 82 87 96 92 85 78 69 64 61 55 51 51 50 51
168 226 229 200 198 198 205 226 243 247 219 252 261 259 224 199 211 209 197 184 169 149 126 86 70 66 66 68 72 76 77 80 81 87 88 87 91 77 72 66 58 55 55 53
206 210 175 160 177 206 223 231 239 235 148 225 276 260 226 197 200 196 195 184 173 162 144 120 92 78 75 70 70 78 84 86 90 97 103 107 99 90 77 68 63 55 58 59
227 178 153 181 200 203 228 226 236 224 229 245 225 269 232 194 203 201 193 188 179 167 155 138 122 100 85 79 84 88 90 90 94 103 107 108 104 98 89 84 79 69 59 58
214 183 183 204 209 199 216 133 191 217 235 251 217 252 252 181 227 210 195 189 181 172 164 153 139 120 104 99 99 100 97 92 95 100 105 105 102 104 104 98 89 79 67 59
234 185 216 220 132 168 131 108 95 123 209 246 219 227 252 212 220 189 184 186 181 173 169 161 151 144 130 122 115 114 109 102 104 107 107 109 113 117 114 106 99 87 77 66
222 218 204 156 128 150 172 164 187 206 216 237 178 221 244 221 177 178 181 181 178 175 174 172 170 167 157 147 136 131 124 116 116 114 112 114 116 117 114 111 103 98 86 71
203 221 197 189 186 177 194 197 199 209 219 210 179 228 243 111 128 157 179 175 175 179 182 182 181 175 168 161 154 147 139 132 131 127 123 122 122 117 113 111 108 100 93 83
201 221 154 187 191 167 180 213 208 154 94 246 219 234 259 165 187 175 173 178 184 185 186 186 184 182 178 174 170 163 154 148 146 141 136 135 132 127 125 122 114 108 105 99
199 210 168 155 137 234 203 169 159 201 201 229 232 221 216 198 203 188 187 190 189 187 188 189 188 187 185 181 176 173 168 161 157 154 150 146 142 138 137 135 130 126 120 113
200 199 164 178 200 192 171 185 202 199 214 211 234 227 208 202 190 190 195 193 189 189 191 192 191 189 186 184 183 182 178 172 170 168 162 158 156 156 154 151 147 143 139 133
192 196 204 212 208 258 214 202 191 191 208 215 240 242 125 204 193 192 190 189 192 193 194 193 191 188 188 189 189 189 186 185 182 177 173 172 171 172 174 170 165 163 161 158
158 162 183 216 214 197 218 217 215 215 185 202 216 229 136 196 203 198 192 187 191 194 195 195 194 194 195 194 193 193 193 192 188 184 183 184 185 187 188 182 177 179 180 182
162 183 206 214 201 183 200 207 206 203 218 225 227 222 199 204 204 198 198 193 191 195 197 198 200 200 199 197 196 197 198 196 191 191 193 196 197 197 194 187 185 188 192 198
175 212 224 237 202 184 201 204 203 212 221 228 231 226 212 203 204 200 193 187 190 197 201 203 204 204 200 200 200 201 201 198 195 197 202 206 203 198 192 189 189 190 199 208
189 212 203 222 214 203 220 216 209 214 223 232 244 242 206 205 198 195 190 187 195 202 204 206 206 205 204 203 202 202 203 200 197 202 208 208 198 192 192 191 189 193 199 207
185 187 192 216 172 180 236 219 205 209 214 217 232 237 150 185 200 204 198 195 201 204 203 203 204 205 206 206 204 204 204 196 193 201 203 198 194 196 196 191 191 199 202 208
184 185 197 170 164 220 237 194 199 212 218 212 214 187 182 202 198 202 198 198 202 199 197 200 201 204 205 204 205 205 197 188 192 201 205 201 199 200 194 192 200 202 202 210
185 182 187 179 214 237 247 201 186 197 225 214 214 192 143 113 115 212 206 200 197 192 190 191 191 191 189 193 193 186 184 186 195 205 208 203 199 197 193 199 203 201 204 213
180 177 184 185 207 225 218 156 165 149 233 204 202 188 151 149 198 216 177 182 184 178 178 174 165 167 179 185 174 176 186 190 204 210 209 199 193 194 197 201 199 198 204 217
182 198 210 207 223 240 135 150 151 179 225 169 181 170 165 186 204 134 147 162 171 172 172 161 162 177 188 172 165 183 190 206 212 201 188 185 189 193 194 190 191 192 204 219
183 190 205 207 220 229 146 158 184 179 110 141 157 166 175 171 139 141 150 158 166 170 173 173 180 197 191 168 174 193 209 212 187 174 180 184 183 182 179 182 187 193 204 220
207 194 190 201 215 81 163 174 157 146 151 168 168 174 167 159 165 165 169 174 180 186 189 186 192 202 196 183 189 206 216 181 163 172 183 180 174 178 177 186 191 196 205 224
223 153 161 193 212 165 166 125 165 191 182 178 170 163 166 168 172 175 174 179 186 192 195 188 190 208 217 201 203 217 190 154 163 181 185 178 180 185 186 197 201 205 209 219
181 167 170 178 125 130 215 212 202 196 174 159 157 168 176 172 175 178 182 189 195 199 196 188 198 215 223 203 203 201 172 162 177 185 184 185 191 196 196 206 213 216 223 224
180 172 169 187 179 172 202 211 200 197 196 183 171 173 182 184 185 184 193 198 199 203 195 195 206 216 219 194 188 173 167 171 176 183 186 188 191 194 204 214 232 238 242 247